Location: Pordenone
(45.9640°N, 12.6580°E)
Time: 03:34:56
(UTC+02:00)

ISS - Pass Details

Date: 18 May 2021
Orbit: 417 x 422 km, 51.6° (Epoch: 14 June)

Event Time Altitude Azimuth Distance (km) Brightness Sun altitude
Rises 22:52:45 0° 271° (W) 2,362 0.5 -17.7°
Reaches altitude 10° 22:54:58 10° 281° (W) 1,501 -0.4 -17.9°
Maximum altitude 22:58:05 34° 349° (NNW) 708 -2.0 -18.2°
Drops below altitude 10° 23:01:13 10° 57° (ENE) 1,506 -0.9 -18.5°
Sets 23:03:26 0° 66° (ENE) 2,372 0.0 -18.7°
